Location: Chavannes
(47.1090°N, 0.2226°W)
Time: 15:48:20
(UTC+00:00)

Cosmos 2251 Rocket - Pass Details

Date: 16 October 2021
Orbit: 765 x 791 km, 74.0° (Epoch: 06 December)

Event Time Altitude Azimuth Distance (km) Brightness Sun altitude
Rises 19:17:50 0° 343° (NNW) 3,260 7.1 -22.2°
Reaches altitude 10° 19:20:24 10° 351° (N) 2,325 6.2 -22.6°
Enters shadow 19:24:29 35° 38° (NE) 1,230 4.3 -23.3°
